CAPE
2 1 1 1 2 0 0 0 0 0 0 0 0 0 0 0 0 0 0 0 0 0 0 0 0 0 0 0 6 3 2 7 6 1 0 0 0 0 0 0 0 0 0
1 2 1 1 0 0 0 0 0 0 0 0 0 0 0 0 0 0 0 0 0 0 0 0 0 0 1 5 8 9 1 0 0 14 0 0 0 0 0 0 0 0 0
1 0 0 0 0 0 0 0 0 0 0 0 0 0 0 0 0 0 0 0 0 0 0 0 0 0 0 1 4 10 4 2 1 4 2 0 1 4 8 10 6 2 0
0 0 0 0 0 0 0 0 0 0 0 0 0 0 0 0 0 0 0 0 0 0 0 0 0 0 0 8 9 4 0 0 2 4 4 3 5 5 8 12 4 7 6
0 0 0 0 0 0 0 0 0 0 0 0 0 0 0 0 0 0 0 0 0 0 0 0 0 0 2 6 1 0 0 3 5 7 4 5 5 6 8 10 11 11 10
0 0 0 0 0 0 0 0 0 0 0 0 0 0 0 0 0 0 0 0 0 0 0 0 0 0 0 0 0 0 3 6 6 7 5 5 5 9 9 12 11 9 8
0 0 0 0 0 0 0 0 0 0 0 0 0 0 0 0 0 0 0 0 0 0 0 0 0 0 0 0 0 0 0 0 2 9 8 5 5 5 8 10 10 13 10
0 0 0 0 0 0 0 0 0 0 0 0 0 0 0 0 0 0 0 0 0 0 0 0 0 0 0 1 0 0 0 0 0 2 4 3 5 7 6 8 7 6 6
0 0 0 0 0 0 0 0 0 0 0 0 0 0 0 0 0 0 0 0 0 0 0 0 0 0 0 0 1 1 1 1 0 3 4 2 0 0 1 11 9 10 7
0 0 0 0 0 0 0 0 0 0 0 0 0 0 0 0 0 0 0 0 1 1 1 0 0 0 0 0 2 2 3 2 4 2 6 5 3 6 11 12 11 9 13
0 0 0 0 0 0 0 0 0 0 0 0 0 0 0 0 0 0 0 0 2 3 1 0 0 0 0 0 0 2 2 0 3 6 6 5 6 5 7 9 8 9 6
0 0 0 0 0 0 0 0 0 0 0 0 0 0 0 0 0 0 0 0 0 4 2 2 3 0 0 0 0 0 0 2 6 7 6 6 9 6 5 5 5 5 5
0 0 0 0 0 0 0 0 0 0 0 0 0 0 0 0 0 0 0 0 0 0 1 0 0 0 0 0 0 0 1 4 7 7 9 7 8 6 6 6 6 5 3
0 0 0 0 0 0 0 0 0 0 0 0 0 0 0 0 0 0 0 0 0 0 0 0 0 0 0 0 0 0 2 10 12 12 10 7 6 5 5 6 6 4 4
0 0 0 0 0 0 0 0 0 0 0 0 0 0 0 0 0 0 0 0 0 2 1 2 2 1 1 0 1 3 2 7 8 9 6 4 5 5 3 5 5 4 4
0 0 0 0 0 0 0 0 0 0 0 0 0 0 0 0 0 0 0 0 0 0 2 3 1 9 8 4 4 7 3 5 6 7 6 5 5 4 4 2 4 4 3
0 0 0 0 0 0 0 0 0 0 0 0 0 0 0 0 0 0 0 0 0 0 7 4 10 4 7 4 11 6 5 5 7 6 6 5 4 4 4 3 3 4 2
0 0 0 0 0 0 0 0 0 0 0 0 0 0 0 0 0 0 0 0 0 0 2 6 4 3 6 8 8 5 4 4 4 4 4 4 5 5 4 3 3 3 2
0 0 0 0 0 0 0 0 0 0 0 0 0 0 0 0 0 0 0 0 3 4 3 5 5 2 3 7 6 6 4 4 5 5 4 3 3 4 2 2 2 0 0
0 0 0 0 0 0 0 0 0 0 0 0 0 0 0 0 0 0 0 0 1 2 3 5 4 3 7 7 9 5 2 3 3 3 3 3 3 4 3 2 2 2 4
0 0 0 0 0 0 0 0 0 0 0 0 0 0 0 0 1 1 0 0 1 1 3 3 3 5 8 7 9 5 5 3 2 1 2 3 3 3 3 3 2 2 1
0 0 0 0 0 0 0 0 0 0 0 0 0 0 0 0 0 0 0 0 0 1 3 4 3 5 3 13 12 10 7 4 2 1 2 2 2 2 3 2 2 4 3
0 0 0 0 0 0 0 0 0 0 0 0 0 0 0 0 0 0 0 0 0 0 0 2 3 4 4 2 10 11 8 6 3 2 1 2 1 2 2 2 2 4 2
0 0 0 0 0 0 0 0 0 0 0 0 0 0 0 0 0 0 0 0 0 0 0 1 2 5 4 7 7 9 9 7 4 2 2 3 2 3 3 3 2 2 0
0 0 0 0 0 0 0 0 0 0 0 0 0 0 0 0 0 0 0 0 0 0 0 0 1 3 3 3 6 6 5 3 5 1 1 4 5 3 3 3 2 3 3
0 0 0 0 0 0 0 0 0 0 0 0 0 0 0 0 0 0 0 0 0 0 0 0 2 1 1 3 5 2 1 1 5 2 1 3 3 2 1 2 2 2 2
CIN
-0 -0 -0 -0 -0 -0 -0 -0 -0 -0 -0 -0 -0 -0 -0 -0 -0 -0 -0 -0 -0 -0 -0 -0 -0 -0 -0 -0 -4 -6 -2 -1 -0 -0 -0 -0 -0 -0 -0 -0 -0 -0 -0
-0 -0 -0 -0 -0 -0 -0 -0 -0 -0 -0 -0 -0 -0 -0 -0 -0 -0 -0 -0 -0 -0 -0 -0 -0 -0 -11 -6 -5 -4 -4 -12 -0 -0 -0 -0 -0 -0 -0 -0 -0 -0 -0
-0 -0 -0 -0 -0 -0 -0 -0 -0 -0 -0 -0 -0 -0 -0 -0 -0 -0 -0 -0 -0 -0 -0 -0 -0 -0 -0 -2 -4 -5 -3 -7 -0 -0 -0 -0 -0 -0 -0 -0 -0 -0 -0
-0 -0 -0 -0 -0 -0 -0 -0 -0 -0 -0 -0 -0 -0 -0 -0 -0 -0 -0 -0 -0 -0 -0 -0 -0 -0 -0 -1 -4 -8 -0 -0 -0 -0 -0 -0 -0 -0 -0 -0 -0 -0 -0
-0 -0 -0 -0 -0 -0 -0 -0 -0 -0 -0 -0 -0 -0 -0 -0 -0 -0 -0 -0 -0 -0 -0 -0 -0 -0 -0 -1 -5 -0 -0 -0 -0 -0 -0 -0 -0 -0 -0 -0 -0 -0 -0
-0 -0 -0 -0 -0 -0 -0 -0 -0 -0 -0 -0 -0 -0 -0 -0 -0 -0 -0 -0 -0 -0 -0 -0 -0 -0 -0 -0 -0 -0 -0 -0 -0 -0 -0 -0 -0 -0 -0 -0 -0 -0 -0
-0 -0 -0 -0 -0 -0 -0 -0 -0 -0 -0 -0 -0 -0 -0 -0 -0 -0 -0 -0 -0 -0 -0 -0 -0 -0 -0 -0 -0 -0 -0 -0 -0 -0 -0 -0 -0 -0 -0 -0 -0 -0 -0
-0 -0 -0 -0 -0 -0 -0 -0 -0 -0 -0 -0 -0 -0 -0 -0 -0 -0 -0 -0 -0 -0 -0 -0 -0 -0 -0 -0 -0 -0 -0 -0 -0 -0 -0 -0 -0 -0 -0 -0 -0 -0 -0
-0 -0 -0 -0 -0 -0 -0 -0 -0 -0 -0 -0 -0 -0 -0 -0 -0 -0 -0 -0 -0 -0 -0 -0 -0 -0 -0 -0 -0 -0 -0 -0 -0 -0 -0 -1 -1 -0 -5 -0 -0 -0 -0
-0 -0 -0 -0 -0 -0 -0 -0 -0 -0 -0 -0 -0 -0 -0 -0 -0 -0 -0 -0 -0 -0 -0 -0 -0 -0 -0 -0 -0 -0 -0 -0 -0 -0 -0 -0 -0 -0 -0 -0 -0 -0 -0
-0 -0 -0 -0 -0 -0 -0 -0 -0 -0 -0 -0 -0 -0 -0 -0 -0 -0 -0 -0 -0 -0 -0 -0 -0 -0 -0 -0 -0 -0 -0 -0 -0 -0 -0 -0 -0 -0 -0 -0 -0 -0 -0
-0 -0 -0 -0 -0 -0 -0 -0 -0 -0 -0 -0 -0 -0 -0 -0 -0 -0 -0 -0 -0 -0 -0 -0 -0 -0 -0 -0 -0 -0 -0 -0 -0 -0 -0 -0 -0 -0 -0 -0 -0 -0 -0
-0 -0 -0 -0 -0 -0 -0 -0 -0 -0 -0 -0 -0 -0 -0 -0 -0 -0 -0 -0 -0 -0 -0 -0 -0 -0 -0 -0 -0 -0 -0 -0 -0 -0 -0 -0 -0 -0 -0 -0 -0 -0 -0
-0 -0 -0 -0 -0 -0 -0 -0 -0 -0 -0 -0 -0 -0 -0 -0 -0 -0 -0 -0 -0 -0 -0 -0 -0 -0 -0 -0 -0 -0 -0 -0 -0 -0 -0 -0 -0 -0 -0 -0 -0 -0 -0
-0 -0 -0 -0 -0 -0 -0 -0 -0 -0 -0 -0 -0 -0 -0 -0 -0 -0 -0 -0 -0 -0 -0 -0 -0 -0 -0 -0 -0 -0 -0 -0 -0 -0 -0 -0 -0 -0 -0 -0 -0 -0 -0
-0 -0 -0 -0 -0 -0 -0 -0 -0 -0 -0 -0 -0 -0 -0 -0 -0 -0 -0 -0 -0 -0 -0 -0 -0 -0 -0 -0 -0 -0 -0 -0 -0 -0 -0 -0 -0 -0 -0 -0 -0 -0 -0
-0 -0 -0 -0 -0 -0 -0 -0 -0 -0 -0 -0 -0 -0 -0 -0 -0 -0 -0 -0 -0 -0 -0 -0 -0 -0 -0 -0 -0 -0 -0 -0 -0 -0 -0 -0 -0 -0 -0 -0 -0 -0 -0
-0 -0 -0 -0 -0 -0 -0 -0 -0 -0 -0 -0 -0 -0 -0 -0 -0 -0 -0 -0 -0 -0 -0 -0 -0 -0 -0 -0 -0 -0 -0 -0 -0 -0 -0 -0 -0 -0 -0 -0 -0 -0 -0
-0 -0 -0 -0 -0 -0 -0 -0 -0 -0 -0 -0 -0 -0 -0 -0 -0 -0 -0 -0 -0 -0 -0 -0 -0 -0 -0 -0 -0 -0 -0 -0 -0 -0 -0 -0 -0 -0 -0 -0 -0 -0 -0
-0 -0 -0 -0 -0 -0 -0 -0 -0 -0 -0 -0 -0 -0 -0 -0 -0 -0 -0 -0 -0 -0 -0 -0 -0 -0 -0 -0 -0 -0 -0 -0 -0 -0 -0 -0 -0 -0 -0 -0 -0 -0 -0
-0 -0 -0 -0 -0 -0 -0 -0 -0 -0 -0 -0 -0 -0 -0 -0 -0 -0 -0 -0 -0 -0 -0 -0 -0 -0 -0 -0 -0 -0 -0 -0 -0 -0 -0 -0 -0 -0 -0 -0 -0 -0 -0
-0 -0 -0 -0 -0 -0 -0 -0 -0 -0 -0 -0 -0 -0 -0 -0 -0 -0 -0 -0 -0 -0 -0 -0 -0 -0 -0 -0 -0 -0 -0 -0 -0 -0 -0 -0 -0 -0 -0 -0 -0 -0 -0
-0 -0 -0 -0 -0 -0 -0 -0 -0 -0 -0 -0 -0 -0 -0 -0 -0 -0 -0 -0 -0 -0 -0 -0 -0 -0 -0 -0 -0 -0 -0 -0 -0 -0 -0 -0 -0 -0 -0 -0 -0 -0 -0
-0 -0 -0 -0 -0 -0 -0 -0 -0 -0 -0 -0 -0 -0 -0 -0 -0 -0 -0 -0 -0 -0 -0 -0 -0 -0 -0 -0 -0 -0 -0 -0 -0 -0 -0 -0 -0 -0 -0 -0 -0 -0 -0
-0 -0 -0 -0 -0 -0 -0 -0 -0 -0 -0 -0 -0 -0 -0 -0 -0 -0 -0 -0 -0 -0 -0 -0 -0 -0 -0 -0 -0 -0 -0 -0 -0 -0 -0 -0 -0 -0 -0 -0 -0 -0 -0
-0 -0 -0 -0 -0 -0 -0 -0 -0 -0 -0 -0 -0 -0 -0 -0 -0 -0 -0 -0 -0 -0 -0 -0 -0 -0 -0 -0 -0 -0 -0 -0 -0 -0 -0 -0 -0 -0 -0 -0 -0 -0 -0
Wind_Speed
11 10 12 11 11 11 9 8 9 8 7 6 5 5 6 8 6 7 6 7 6 5 4 5 5 5 4 3 5 4 4 6 8 10 8 10 12 11 11 9 11 10 8
10 10 10 13 12 13 12 10 8 8 6 5 5 6 7 7 7 7 7 5 6 6 6 7 6 5 7 5 5 5 4 5 5 13 12 9 11 11 11 10 9 9 9
10 12 12 11 13 12 11 10 8 8 6 5 5 7 6 7 7 7 5 5 6 6 7 6 7 8 8 7 6 6 7 7 9 9 11 9 9 9 10 10 9 9 7
12 12 11 12 12 11 10 9 8 6 7 6 5 6 7 7 7 6 4 5 6 7 6 6 8 9 10 7 6 7 8 10 10 9 10 11 11 10 8 9 10 8 9
13 13 12 12 11 10 10 9 8 7 6 5 6 7 5 6 6 5 4 6 7 7 6 9 9 13 13 11 6 8 10 9 8 9 10 10 10 8 8 7 9 9 9
13 12 14 12 11 10 9 9 9 7 6 7 6 7 7 6 10 12 9 7 7 8 9 9 10 11 11 12 15 16 12 9 11 8 10 10 12 9 9 8 8 7 5
15 11 12 10 11 9 8 8 7 6 5 6 6 8 8 8 14 15 16 8 8 9 9 9 9 8 11 10 14 17 14 13 13 11 12 12 14 11 11 12 9 8 8
15 11 10 9 10 8 7 8 7 4 5 6 8 9 8 9 15 16 17 9 8 10 10 9 8 9 9 12 14 13 12 12 10 9 11 13 13 13 12 11 11 9 7
13 11 9 9 10 9 8 8 6 7 8 9 8 8 8 7 14 14 14 10 9 9 9 8 8 9 11 15 11 13 14 13 10 16 18 21 20 19 15 8 6 5 5
11 10 8 9 11 10 8 8 6 7 9 7 9 8 10 8 12 15 14 7 10 8 9 8 11 11 14 16 10 10 12 13 15 16 13 12 11 11 13 7 6 6 5
9 11 10 9 10 7 10 7 7 9 8 7 7 6 8 8 11 16 16 9 8 8 8 7 7 14 15 14 12 7 10 15 17 12 11 9 8 8 6 6 7 6 6
10 11 10 8 8 8 11 8 9 7 8 7 7 6 6 9 13 14 17 15 15 9 9 8 9 16 16 15 11 14 15 15 9 9 9 8 9 8 8 9 10 8 7
10 10 9 10 7 6 7 8 7 6 5 6 6 6 6 7 8 16 15 16 15 9 8 12 15 15 15 11 14 15 14 8 8 8 9 9 8 8 11 9 9 9 8
10 9 7 7 6 6 6 6 5 5 6 6 6 6 6 8 8 8 8 8 12 10 12 8 11 12 12 12 11 10 8 8 9 8 9 8 8 8 8 7 8 7 6
9 8 7 7 6 5 5 4 5 4 5 4 5 5 6 8 8 11 9 7 8 10 11 8 8 9 9 9 9 9 9 8 9 8 9 9 9 9 8 7 6 6 4
9 6 5 4 4 4 4 4 7 11 14 14 13 10 5 9 13 14 15 15 15 13 8 8 8 8 9 10 11 11 9 12 10 10 9 9 9 9 10 9 6 5 5
8 6 5 5 4 4 4 5 4 7 12 13 16 13 12 12 15 17 17 15 14 11 7 9 8 9 10 10 9 9 10 10 11 9 10 10 10 9 10 9 7 6 5
6 10 5 4 4 5 5 5 5 5 6 6 6 11 14 14 15 16 16 9 9 10 9 9 10 9 10 10 10 10 10 10 10 10 10 10 9 10 10 9 7 6 5
5 4 4 4 4 5 5 5 5 5 5 5 6 8 12 13 13 14 14 8 9 9 9 9 9 9 10 9 9 10 10 10 11 11 10 10 10 10 10 9 9 8 1
4 9 6 5 4 5 5 5 5 5 5 5 6 7 7 7 9 9 8 8 8 8 9 9 10 9 9 10 10 10 10 11 11 10 11 10 10 10 9 11 9 8 3
5 5 7 6 5 5 5 5 4 4 5 5 5 7 7 6 6 7 8 8 8 8 9 9 9 9 10 11 11 11 12 11 11 12 11 11 11 11 10 9 9 8 2
6 6 6 6 6 6 5 4 4 5 6 6 5 6 8 6 6 7 8 8 8 8 8 9 9 8 10 10 11 12 12 13 13 13 13 12 11 10 10 9 9 7 5
7 8 7 6 6 6 5 5 5 5 5 6 6 6 6 6 7 7 8 8 8 9 9 9 9 10 10 11 10 11 12 13 13 12 13 12 12 11 10 10 10 6 6
8 8 8 7 5 5 5 5 5 6 6 6 6 6 6 7 7 9 9 9 9 9 10 9 10 13 13 12 12 11 12 13 12 13 16 12 12 13 11 11 11 8 5
8 8 7 6 5 5 6 5 5 5 5 5 6 6 6 7 8 9 9 9 9 10 11 10 10 13 15 19 19 20 19 22 18 19 12 14 15 16 14 10 13 10 10
7 7 6 6 6 5 5 5 5 5 5 5 6 6 6 7 7 8 9 10 10 10 12 10 12 16 18 15 19 21 22 23 21 22 14 12 13 13 12 13 18 10 12
Wind_Direction
126 135 132 131 133 130 122 118 119 108 107 100 96 103 94 84 77 73 66 39 21 1 0 359 350 331 305 318 322 317 326 323 303 301 296 299 299 311 315 317 315 313 314
128 131 136 127 139 126 115 106 107 101 98 114 119 106 93 89 73 71 58 32 12 354 4 5 340 327 297 325 316 303 304 289 286 300 303 302 296 304 302 309 311 313 312
117 111 110 111 105 105 104 106 102 102 96 86 106 100 98 81 75 64 55 30 8 15 14 349 339 339 329 320 322 316 314 307 295 291 293 298 303 313 312 312 308 304 298
112 105 103 105 99 99 99 95 89 90 94 79 87 92 79 76 63 58 45 33 13 16 13 350 346 342 319 310 327 334 327 304 301 302 306 311 311 314 303 305 311 311 308
116 111 100 93 94 94 92 87 81 75 79 79 72 67 78 74 55 37 17 31 18 2 7 0 346 326 324 325 345 329 316 307 305 309 305 305 307 316 309 307 295 303 304
71 72 87 87 85 79 75 72 73 63 59 67 62 71 65 62 44 35 32 20 9 10 344 354 335 325 334 322 329 322 319 306 304 308 303 301 301 310 306 302 295 300 311
69 56 63 66 70 69 81 84 76 77 67 70 64 84 75 60 42 30 20 11 353 360 334 340 333 327 325 321 319 322 319 313 305 300 295 301 300 302 299 296 294 283 275
101 98 87 86 86 78 79 79 71 64 65 67 65 67 65 46 33 26 11 355 0 343 342 327 320 315 319 330 324 323 322 319 307 309 297 292 290 295 292 289 289 285 278
87 85 89 96 90 81 66 62 58 66 59 60 58 50 44 19 18 13 5 355 351 339 324 319 319 317 325 323 326 322 319 312 312 310 297 288 285 286 283 297 286 277 291
83 85 83 82 85 83 82 76 66 68 62 57 52 35 31 21 5 9 11 353 359 337 319 323 326 327 323 323 325 320 313 319 321 317 306 302 296 294 299 304 302 304 283
87 91 84 75 82 88 79 59 64 64 62 55 55 38 29 10 10 5 7 3 350 331 332 331 337 326 323 323 321 313 311 309 309 302 304 310 303 306 313 310 298 283 283
81 79 76 66 71 73 77 67 62 62 61 49 44 33 12 18 5 1 4 1 353 332 334 337 336 333 331 324 325 318 312 310 303 306 312 314 312 325 326 315 299 281 264
83 75 79 72 61 65 83 77 68 58 62 55 46 31 9 5 5 1 356 353 351 351 344 342 335 337 330 333 335 328 325 314 311 316 320 309 317 314 309 307 304 298 289
94 93 84 92 81 70 74 78 74 52 45 42 36 26 11 10 3 354 359 350 352 355 345 339 347 345 341 336 336 335 325 319 329 323 310 311 313 319 317 313 313 315 301
92 89 86 73 77 84 70 71 68 47 54 38 29 25 12 6 356 357 357 355 358 353 348 354 358 356 345 343 339 334 331 333 337 328 324 326 326 323 318 317 309 311 286
85 79 78 87 82 81 85 62 42 65 54 47 42 40 21 7 6 4 6 4 357 347 7 360 354 347 347 344 342 335 335 340 334 330 329 329 327 324 320 320 315 313 312
93 94 98 93 86 88 82 74 68 27 34 33 29 25 28 19 16 12 7 357 353 352 8 3 347 346 347 343 336 332 334 332 328 330 331 330 327 321 323 320 320 317 319
94 94 86 89 89 72 60 58 63 50 37 19 358 24 20 17 17 16 9 1 15 18 8 1 352 348 349 341 337 337 334 335 338 336 334 333 329 324 324 324 318 308 299
103 107 108 93 78 78 77 75 70 63 51 36 19 15 7 8 17 20 15 22 13 7 2 356 357 349 352 340 337 336 335 336 335 335 335 333 330 328 322 319 317 313 297
121 123 114 102 92 90 85 82 72 60 50 42 37 19 7 17 22 12 13 14 16 7 359 357 359 349 348 342 344 340 339 342 341 340 338 333 330 327 322 320 319 319 338
106 107 111 97 96 100 96 90 80 67 59 49 40 26 9 31 15 11 11 12 9 8 2 1 0 350 353 348 349 348 345 342 342 339 336 334 330 330 326 319 318 320 353
112 111 109 108 108 101 90 86 81 70 56 49 37 29 8 27 21 15 12 9 6 7 5 5 1 354 359 352 351 350 348 344 342 340 336 333 330 330 329 327 329 339 1
110 106 105 102 100 102 97 86 78 70 63 52 43 34 23 21 20 16 11 2 3 8 8 10 3 0 2 360 356 353 349 345 338 335 334 333 337 338 336 334 336 359 11
112 115 115 111 113 112 102 89 84 74 63 55 44 36 27 21 14 13 9 2 4 8 10 8 7 4 4 2 359 356 353 348 344 341 339 339 343 344 346 347 351 354 11
115 115 114 121 119 110 104 90 77 68 61 52 44 35 25 23 17 12 5 3 3 4 6 3 5 1 6 5 4 2 356 356 356 352 345 349 353 354 356 355 357 1 8
108 111 114 111 105 102 100 93 79 69 61 49 40 33 27 20 15 10 4 4 2 1 1 3 4 6 8 5 3 3 4 2 360 357 357 356 360 360 2 2 3 6 4